EST,Max TemperatureF,Mean TemperatureF,Min TemperatureF,Max Dew PointF,MeanDew PointF,Min DewpointF,Max Humidity, Mean Humidity, Min Humidity, Max Sea Level PressureIn, Mean Sea Level PressureIn, Min Sea Level PressureIn, Max VisibilityMiles, Mean VisibilityMiles, Min VisibilityMiles, Max Wind SpeedMPH, Mean Wind SpeedMPH, Max Gust SpeedMPH,PrecipitationIn, CloudCover, Events, WindDirDegrees
2013-12-1,,,,,,,,,,,,,,,,,,,,,,
2013-12-2,,,,,,,,,,,,,,,,,,,,,,
2013-12-3,,,,,,,,,,,,,,,,,,,,,,
2013-12-4,,,,,,,,,,,,,,,,,,,,,,
2013-12-5,,,,,,,,,,,,,,,,,,,,,,
2013-12-6,,,,,,,,,,,,,,,,,,,,,,
2013-12-7,,,,,,,,,,,,,,,,,,,,,,
2013-12-8,,,,,,,,,,,,,,,,,,,,,,
2013-12-9,48,40,31,39,34,29,97,86,58,30.11,30.06,30.01,10,7,2,5,0,,0.55,3,,310
2013-12-10,40,35,31,36,26,15,99,74,45,30.21,30.07,29.98,10,7,1,25,3,39,0.11,5,Snow,260
2013-12-11,44,34,24,22,16,11,75,48,28,30.35,30.28,30.20,10,10,10,18,4,29,0.10,1,,258
2013-12-12,34,31,26,22,11,6,61,45,34,30.42,30.32,30.22,10,10,7,24,8,36,0.01,1,Snow,272
2013-12-13,45,37,30,27,16,8,86,48,30,30.28,30.24,30.19,10,10,5,15,5,29,0.00,0,,243
2013-12-14,36,33,30,36,33,26,99,94,80,30.27,30.09,29.73,10,3,0,0,0,,0.20,8,Fog-Snow,-1
2013-12-15,44,40,35,38,30,23,99,74,62,29.95,29.81,29.64,10,8,0,22,6,29,0.05,7,Fog,266
2013-12-16,39,36,32,32,28,24,87,73,61,30.13,30.07,29.94,10,10,4,24,7,34,0.00,8,Snow,271
2013-12-17,46,38,32,38,32,25,90,77,58,30.08,29.98,29.90,10,8,4,21,1,26,0.01,6,Rain-Snow,275
2013-12-18,41,36,30,28,24,21,80,61,50,30.19,30.14,30.01,10,10,7,20,8,26,0.01,4,Snow,277
2013-12-19,65,48,30,36,29,19,88,52,27,30.15,30.09,30.06,10,10,10,18,3,26,0.00,0,,251
2013-12-20,65,48,33,48,38,32,94,68,36,30.10,30.03,29.96,10,10,10,13,2,17,0.00,3,,176
2013-12-21,75,62,49,60,52,45,87,63,43,29.99,29.92,29.83,10,10,10,16,5,22,0.00,2,,192
2013-12-22,74,68,63,61,58,54,89,73,63,29.98,29.89,29.75,10,10,5,25,5,40,0.07,4,Rain,188
2013-12-23,60,50,37,57,43,26,97,76,58,30.27,30.10,29.93,10,9,2,18,3,25,0.23,5,Rain,298
2013-12-24,38,30,22,30,20,7,90,64,39,30.48,30.32,30.22,10,10,10,26,4,38,0.00,4,Snow,287
2013-12-25,38,28,18,24,16,12,86,66,36,30.51,30.41,30.26,10,10,10,0,0,,0.00,0,,-1
2013-12-26,45,36,26,28,23,17,89,59,35,30.35,30.25,30.19,10,10,10,20,2,34,0.00,4,,265
2013-12-27,53,36,20,28,22,14,91,63,24,30.39,30.35,30.31,10,10,10,16,2,22,0.00,0,,253
2013-12-28,61,42,23,38,27,21,93,65,25,30.34,30.23,30.10,10,10,7,10,1,,0.00,0,,242
2013-12-29,52,44,37,46,40,33,98,85,65,30.10,29.85,29.62,10,7,1,20,1,36,1.34,8,Rain-Snow,265
2013-12-30,50,42,33,38,31,26,75,67,59,30.15,30.05,29.86,10,10,10,18,6,28,0.00,8,,285
2013-12-31,41,36,32,28,22,16,78,55,42,30.29,30.17,30.09,10,10,10,25,6,39,0.00,4,,256